Canadian, TX

12:31 AM CST on December 07, 2019 (GMT -0600)
Hemphill County

Weather History for KHHF - October, 2019

Change the Weather History Date:

Sunday, October 27, 2019

  Actual Average (WUND) Record (WUND)
Temperature  
Mean Temperature 43 °F -  
Max Temperature 50 °F - - (-1)
Min Temperature 34 °F - - (-1)
Degree Days  
Heating Degree Days 22    
Moisture  
Dew Point 34 °F    
Average Humidity 72    
Maximum Humidity 95    
Minimum Humidity 46    
Precipitation  
Precipitation 0.00 in - - ()
Sea Level Pressure  
Sea Level Pressure 29.93 in    
Wind  
Wind Speed 7 mph ()    
Max Wind Speed 22 mph    
Max Gust Speed 29 mph    
Visibility 10.0 miles    
Events      
Averages and records for this station are not official NWS values.
T = Trace of Precipitation, MM = Missing Value Source: Averaged Metar Reports

Daily Weather History Graph

Daily Weather History Graph

Search for Another Location

Airport or City:

Astronomy

Oct. 27, 2019 Rise Set
Actual Time 7:59 AM CDT 6:51 PM CDT
Civil Twilight 7:32 AM CDT 7:17 PM CDT
Nautical Twilight 7:02 AM CDT 7:47 PM CDT
Astronomical Twilight 6:32 AM CDT 8:17 PM CDT
Moon 7:13 AM CDT (10/27) 6:59 PM CDT (10/27)
Length of Visible Light 11h 44m
Length of Day
10h 52m
Waning Crescent, 0% of the Moon is Illuminated
Oct 27
Waning Crescent
Oct 27
New
Nov 4
First Quarter
Nov 12
Full
Nov 19
Last Quarter

Hourly Weather History & Observations

Time (CDT) Temp. Windchill Dew Point Humidity Pressure Visibility Wind Dir Wind Speed Gust Speed Precip Events Conditions
12:15 AM 52.3 °F - 32.2 °F 46% 29.70 in 10.0 mi Calm Calm - N/A   Clear
12:35 AM 51.4 °F - 32.4 °F 48% 29.71 in 10.0 mi Calm Calm - N/A   Clear
12:55 AM 48.9 °F - 33.4 °F 55% 29.70 in 10.0 mi North 3.5 mph - N/A   Clear
1:15 AM 48.4 °F - 33.1 °F 56% 29.70 in 10.0 mi Calm Calm - N/A   Clear
1:35 AM 48.7 °F - 32.9 °F 54% 29.70 in 10.0 mi Calm Calm - N/A   Clear
1:55 AM 48.2 °F - 32.7 °F 55% 29.70 in 10.0 mi South 3.5 mph - N/A   Clear
2:15 AM 45.3 °F - 32.9 °F 62% 29.70 in 10.0 mi Calm Calm - N/A   Clear
2:35 AM 44.6 °F 41.4 °F 33.6 °F 65% 29.70 in 10.0 mi SSE 5.8 mph - N/A   Clear
2:55 AM 44.2 °F - 32.9 °F 64% 29.70 in 10.0 mi Calm Calm - N/A   Clear
3:15 AM 46.0 °F - 33.3 °F 61% 29.70 in 10.0 mi Calm Calm - N/A   Clear
3:35 AM 41.5 °F 39.6 °F 32.9 °F 71% 29.70 in 10.0 mi SSE 3.5 mph - N/A   Clear
3:55 AM 40.8 °F - 32.5 °F 72% 29.72 in 10.0 mi Calm Calm - N/A   Clear
4:15 AM 41.0 °F - 33.1 °F 73% 29.72 in 10.0 mi Calm Calm - N/A   Clear
4:35 AM 39.9 °F - 32.9 °F 76% 29.72 in 10.0 mi Calm Calm - N/A   Clear
4:55 AM 36.0 °F - 32.2 °F 86% 29.71 in 10.0 mi Calm Calm - N/A   Clear
5:15 AM 35.1 °F - 31.6 °F 87% 29.72 in 10.0 mi Calm Calm - N/A   Clear
5:35 AM 34.9 °F - 32.7 °F 92% 29.75 in 10.0 mi Calm Calm - N/A   Clear
5:55 AM 34.9 °F - 32.0 °F 89% 29.75 in 10.0 mi Calm Calm - N/A   Clear
6:15 AM 36.3 °F - 33.6 °F 90% 29.78 in 10.0 mi Calm Calm - N/A   Clear
6:35 AM 37.4 °F - 33.3 °F 85% 29.79 in 10.0 mi Calm Calm - N/A   Clear
6:55 AM 34.2 °F 29.0 °F 32.9 °F 95% 29.81 in 10.0 mi NNW 5.8 mph - N/A   Clear
7:15 AM 38.5 °F 31.6 °F 34.9 °F 87% 29.84 in 10.0 mi North 10.4 mph - N/A   Clear
7:35 AM 39.9 °F 32.5 °F 36.3 °F 87% 29.85 in 10.0 mi North 12.7 mph 19.6 mph N/A   Clear
7:55 AM 39.7 °F 32.3 °F 36.9 °F 89% 29.88 in 10.0 mi North 12.7 mph 19.6 mph N/A   Clear
8:15 AM 39.9 °F 32.5 °F 36.7 °F 88% 29.89 in 10.0 mi North 12.7 mph 20.7 mph N/A   Scattered Clouds
8:35 AM 40.1 °F 33.2 °F 36.5 °F 87% 29.92 in 10.0 mi North 11.5 mph 19.6 mph N/A   Mostly Cloudy
8:55 AM 40.5 °F 32.1 °F 36.5 °F 86% 29.92 in 10.0 mi North 16.1 mph 23.0 mph N/A   Overcast
9:15 AM 40.5 °F 31.2 °F 36.0 °F 84% 29.95 in 10.0 mi North 19.6 mph 26.5 mph N/A   Overcast
9:35 AM 40.6 °F 31.7 °F 35.6 °F 82% 29.95 in 10.0 mi North 18.4 mph 28.8 mph N/A   Overcast
9:55 AM 41.0 °F 32.5 °F 35.6 °F 81% 29.96 in 10.0 mi North 17.3 mph 25.3 mph N/A   Overcast
10:15 AM 41.2 °F 31.9 °F 35.4 °F 80% 29.98 in 10.0 mi North 20.7 mph 27.6 mph N/A   Overcast
10:35 AM 41.5 °F 32.9 °F 35.4 °F 79% 30.00 in 10.0 mi NNE 18.4 mph 27.6 mph N/A   Overcast
10:55 AM 41.9 °F 33.7 °F 35.4 °F 78% 30.01 in 10.0 mi North 17.3 mph 27.6 mph N/A   Overcast
11:15 AM 42.3 °F 33.6 °F 35.2 °F 76% 30.01 in 10.0 mi North 19.6 mph 26.5 mph N/A   Overcast
11:35 AM 42.8 °F 34.3 °F 35.1 °F 74% 30.02 in 10.0 mi North 19.6 mph 27.6 mph N/A   Overcast
11:55 AM 43.5 °F 35.0 °F 35.6 °F 74% 30.02 in 10.0 mi North 20.7 mph 28.8 mph N/A   Overcast
12:15 PM 43.7 °F 35.7 °F 35.2 °F 72% 30.02 in 10.0 mi North 18.4 mph 26.5 mph N/A   Overcast
12:35 PM 44.4 °F 36.4 °F 35.6 °F 71% 30.02 in 10.0 mi NNE 19.6 mph 26.5 mph N/A   Overcast
12:55 PM 44.6 °F 36.6 °F 35.6 °F 71% 30.01 in 10.0 mi NNE 19.6 mph 23.0 mph N/A   Overcast
1:15 PM 44.8 °F 36.4 °F 35.6 °F 70% 30.02 in 10.0 mi North 21.9 mph 25.3 mph N/A   Overcast
1:35 PM 45.3 °F 38.1 °F 35.6 °F 69% 30.01 in 10.0 mi North 17.3 mph 21.9 mph N/A   Overcast
1:55 PM 45.5 °F 38.3 °F 35.8 °F 69% 30.01 in 10.0 mi North 17.3 mph 23.0 mph N/A   Overcast
2:15 PM 45.1 °F 37.3 °F 35.6 °F 69% 30.01 in 10.0 mi NNE 19.6 mph 24.2 mph N/A   Overcast
2:35 PM 45.7 °F 38.6 °F 35.6 °F 68% 30.01 in 10.0 mi NNE 17.3 mph 26.5 mph N/A   Overcast
2:55 PM 45.9 °F 39.1 °F 35.6 °F 67% 30.01 in 10.0 mi North 16.1 mph - N/A   Overcast
3:35 PM 46.4 °F 39.2 °F 35.2 °F 65% 30.01 in 10.0 mi NNE 18.4 mph 24.2 mph N/A   Overcast
3:55 PM 46.0 °F 38.5 °F 35.2 °F 66% 30.01 in 10.0 mi North 19.6 mph - N/A   Overcast
4:15 PM 46.0 °F 39.0 °F 34.9 °F 65% 30.02 in 10.0 mi NNE 17.3 mph - N/A   Overcast
4:35 PM 46.0 °F 40.2 °F 35.1 °F 66% 30.02 in 10.0 mi North 12.7 mph 20.7 mph N/A   Overcast
4:55 PM 46.8 °F - 35.1 °F 64% 30.02 in 10.0 mi NNE 15.0 mph 21.9 mph N/A   Overcast
5:15 PM 46.0 °F 40.2 °F 34.9 °F 65% 30.02 in 10.0 mi NE 12.7 mph - N/A   Mostly Cloudy
5:35 PM 47.1 °F - 35.1 °F 63% 30.02 in 10.0 mi NNE 12.7 mph 19.6 mph N/A   Mostly Cloudy
5:55 PM 46.0 °F 41.4 °F 34.9 °F 65% 30.02 in 10.0 mi NE 9.2 mph 17.3 mph N/A   Overcast
6:15 PM 45.7 °F 40.6 °F 35.1 °F 66% 30.02 in 10.0 mi NE 10.4 mph - N/A   Overcast
6:35 PM 45.1 °F 40.3 °F 35.1 °F 68% 30.03 in 10.0 mi NE 9.2 mph - N/A   Overcast
6:55 PM 44.6 °F 40.2 °F 35.1 °F 69% 30.03 in 10.0 mi NE 8.1 mph - N/A   Overcast
7:15 PM 44.6 °F 41.4 °F 35.2 °F 70% 30.04 in 10.0 mi NE 5.8 mph - N/A   Overcast
7:35 PM 44.6 °F 40.2 °F 35.2 °F 70% 30.05 in 10.0 mi NE 8.1 mph - N/A   Overcast
7:55 PM 44.2 °F 40.3 °F 35.2 °F 71% 30.06 in 10.0 mi NNE 6.9 mph - N/A   Overcast
8:15 PM 44.1 °F 39.5 °F 35.2 °F 71% 30.07 in 10.0 mi NNE 8.1 mph - N/A   Overcast
8:35 PM 43.9 °F 38.3 °F 35.6 °F 73% 30.08 in 10.0 mi NNE 10.4 mph - N/A   Overcast
8:55 PM 43.7 °F 39.1 °F 35.1 °F 72% 30.09 in 10.0 mi NNE 8.1 mph - N/A   Overcast
9:15 PM 43.0 °F 35.7 °F 34.5 °F 72% 30.09 in 10.0 mi NNE 15.0 mph - N/A   Overcast
9:35 PM 42.3 °F 35.9 °F 33.8 °F 72% 30.10 in 10.0 mi NNE 11.5 mph - N/A   Overcast
9:55 PM 41.9 °F 36.9 °F 33.8 °F 73% 30.10 in 10.0 mi NNE 8.1 mph - N/A   Overcast
10:15 PM 41.9 °F 35.4 °F 33.1 °F 71% 30.09 in 10.0 mi NNE 11.5 mph - N/A   Overcast
10:35 PM 41.4 °F 34.7 °F 32.5 °F 71% 30.10 in 10.0 mi NNE 11.5 mph 18.4 mph N/A   Overcast
10:55 PM 41.0 °F 34.3 °F 32.2 °F 71% 30.10 in 10.0 mi NNE 11.5 mph - N/A   Overcast
11:15 PM 40.5 °F 34.1 °F 32.2 °F 72% 30.10 in 10.0 mi North 10.4 mph - N/A   Overcast
11:35 PM 40.5 °F 34.6 °F 32.2 °F 72% 30.10 in 10.0 mi NNE 9.2 mph - N/A   Overcast
11:55 PM 40.5 °F 33.6 °F 31.6 °F 71% 30.10 in 10.0 mi NNE 11.5 mph 18.4 mph N/A   Overcast